Location: Greenwich
(51.4790°N, 0.0090°E)
Time: 07:25:17
(UTC+01:00)

Tiros 1 - Pass Details

Date: 30 April 2024
Orbit: 624 x 657 km, 48.4° (Epoch: 25 May)

Event Time Altitude Azimuth Distance (km) Brightness Sun altitude
Rises 21:00:55 0° 215° (SW) 2,954 10.6 -6.0°
Reaches altitude 10° 21:03:36 10° 202° (SSW) 2,041 9.6 -6.4°
Maximum altitude 21:07:23 24° 148° (SSE) 1,319 8.2 -6.9°
Drops below altitude 10° 21:11:09 10° 95° (E) 2,030 9.2 -7.3°
Enters shadow 21:13:36 - 82° (E) 2,864 10.0 -7.7°
